Eugene, OR

4:42 AM PDT on May 29, 2017 (GMT -0700)
Mahlon Sweet

Weather History for KEUG - October, 2011

Change the Weather History Date:

Monday, October 31, 2011

  Actual Average Record
Temperature  
Mean Temperature 49 °F 48 °F  
Max Temperature 58 °F 58 °F 75 °F (1949)
Min Temperature 39 °F 39 °F 17 °F (2002)
Degree Days  
Heating Degree Days 16 17  
Month to date heating degree days 330 384  
Since 1 July heating degree days 454 570  
Cooling Degree Days 0 0  
Month to date cooling degree days 0 1  
Year to date cooling degree days 231 239  
Moisture  
Dew Point 43 °F    
Average Humidity 74    
Maximum Humidity 92    
Minimum Humidity 55    
Precipitation  
Precipitation T in 0.17 in 3.70 in (1994)
Month to date precipitation 1.80 3.25  
Year to date precipitation 23.70 30.55  
Snow  
Snow 0.00 in - - ()
Month to date snowfall 0.0  
Since 1 July snowfall 0.0  
Since 1 September snowfall 0.0  
Snow Depth 0.00 in    
Sea Level Pressure  
Sea Level Pressure 30.40 in    
Wind  
Wind Speed 4 mph (NNW)    
Max Wind Speed 21 mph    
Max Gust Speed 29 mph    
Visibility 10 miles    
Events Rain    
T = Trace of Precipitation, MM = Missing Value Source: NWS Daily Summary

Daily Weather History Graph

Daily Weather History Graph

Search for Another Location

Airport or City:

Trip Planner

Search our weather history database for the weather conditions in past years. The results will help you decide how hot, cold, wet, or windy it might be!

Date:

Astronomy

Oct. 31, 2011 Rise Set
Actual Time 7:48 AM PDT 6:04 PM PDT
Civil Twilight 7:17 AM PDT 6:34 PM PDT
Nautical Twilight 6:43 AM PDT 7:08 PM PDT
Astronomical Twilight 6:10 AM PDT 7:41 PM PDT
Moon 1:03 PM PDT (10/31) 10:42 PM PDT (10/31)
Length of Visible Light 11h 16m
Length of Day
10h 16m
Waxing Crescent, 31% of the Moon is Illuminated
Oct 31
Waxing Crescent
Nov 2
First Quarter
Nov 10
Full
Nov 18
Last Quarter
Nov 24
New

Hourly Weather History & Observations

Time (PDT) Temp. Windchill Dew Point Humidity Pressure Visibility Wind Dir Wind Speed Gust Speed Precip Events Conditions
12:54 AM 52.0 °F - 48.9 °F 89% 30.29 in 10.0 mi SSW 4.6 mph - N/A   Overcast
1:54 AM 52.0 °F - 48.9 °F 89% 30.31 in 6.0 mi North 4.6 mph - 0.00 in   Overcast
2:54 AM 52.0 °F - 48.9 °F 89% 30.32 in 10.0 mi North 3.5 mph - 0.00 in   Overcast
3:54 AM 51.8 °F - 48.2 °F 88% 30.33 in 10.0 mi Calm Calm - N/A   Overcast
4:54 AM 48.0 °F - 44.1 °F 86% 30.35 in 10.0 mi North 6.9 mph - N/A   Mostly Cloudy
5:54 AM 45.0 °F 42.6 °F 39.9 °F 82% 30.36 in 10.0 mi NNW 4.6 mph - N/A   Clear
6:54 AM 39.9 °F - 37.9 °F 93% 30.38 in 10.0 mi Calm Calm - N/A   Partly Cloudy
7:54 AM 39.9 °F - 37.9 °F 93% 30.39 in 10.0 mi Calm Calm - N/A   Scattered Clouds
8:54 AM 44.1 °F 42.5 °F 41.0 °F 89% 30.41 in 10.0 mi WSW 3.5 mph - N/A   Scattered Clouds
9:54 AM 48.9 °F - 44.1 °F 83% 30.42 in 10.0 mi Calm Calm - N/A   Scattered Clouds
10:54 AM 54.0 °F - 44.1 °F 69% 30.43 in 10.0 mi Calm Calm - N/A   Scattered Clouds
11:54 AM 55.0 °F - 43.0 °F 64% 30.42 in 10.0 mi Calm Calm - N/A   Mostly Cloudy
12:54 PM 55.9 °F - 42.1 °F 60% 30.41 in 10.0 mi Variable 5.8 mph - N/A   Mostly Cloudy
1:54 PM 57.0 °F - 41.0 °F 55% 30.39 in 10.0 mi North 6.9 mph - N/A   Mostly Cloudy
2:54 PM 55.4 °F - 39.2 °F 54% 30.39 in 10.0 mi North 6.9 mph - N/A   Mostly Cloudy
3:54 PM 53.1 °F - 44.1 °F 71% 30.40 in 10.0 mi NW 6.9 mph - 0.00 in Rain Light Rain
4:54 PM 53.1 °F - 43.0 °F 69% 30.41 in 10.0 mi NNE 11.5 mph - N/A   Mostly Cloudy
5:54 PM 50.0 °F - 45.0 °F 83% 30.42 in 10.0 mi North 5.8 mph - 0.00 in   Mostly Cloudy
6:54 PM 45.0 °F 41.8 °F 41.0 °F 86% 30.43 in 10.0 mi NW 5.8 mph - N/A   Scattered Clouds
7:54 PM 46.9 °F - 44.1 °F 90% 30.44 in 10.0 mi North 5.8 mph - 0.01 in Rain Light Rain
8:54 PM 46.4 °F 42.4 °F 44.6 °F 93% 30.45 in 10.0 mi North 8.1 mph - N/A   Overcast
9:54 PM 46.9 °F - 42.1 °F 83% 30.47 in 10.0 mi North 9.2 mph - N/A   Overcast
10:54 PM 39.9 °F 34.5 °F 37.0 °F 89% 30.48 in 10.0 mi North 8.1 mph - N/A   Clear
11:54 PM 39.0 °F 33.4 °F 36.0 °F 89% 30.48 in 10.0 mi NNW 8.1 mph - N/A   Clear